Weather History for Pleasanton, TX

Change the Weather History Date:

Saturday, August 18, 2012

  Actual Average Record
Temperature  
Mean Temperature 90 °F -  
Max Temperature 102 °F 100 °F 103 °F (2011)
Min Temperature 77 °F 73 °F 63 °F (1992)
Cooling Degree Days 24    
Growing Degree Days 40 (Base 50)    
Moisture  
Dew Point 67 °F    
Average Humidity 53    
Maximum Humidity 83    
Minimum Humidity 25    
Precipitation  
Precipitation 0.00 in - - ()
Sea Level Pressure  
Sea Level Pressure 29.87 in    
Wind  
Wind Speed 7 mph (SSE)    
Max Wind Speed 16 mph    
Max Gust Speed 24 mph    
Visibility 10 miles    
Events Thunderstorm    
Averages and records for this station are not official NWS values.
T = Trace of Precipitation, MM = Missing Value Source: NWS Daily Summary

Daily Weather History Graph

Daily Weather History Graph

Search for Another Location

Airport:

Trip Planner

Search our weather history database for the weather conditions in past years. The results will help you decide how hot, cold, wet, or windy it might be!

Date:

Astronomy

Aug. 18, 2012 Rise Set
Actual Time 7:04 AM CDT 8:10 PM CDT
Civil Twilight 6:40 AM CDT 8:34 PM CDT
Nautical Twilight 6:10 AM CDT 9:04 PM CDT
Astronomical Twilight 5:40 AM CDT 9:34 PM CDT
Moon 8:03 AM CDT (8/18) 8:40 PM CDT (8/18)
Length of Visible Light 13h 54m
Length of Day
13h 05m
New Moon, 1% of the Moon is Illuminated
Aug 18
New Moon
Aug 24
First Quarter
Aug 31
Full
Sep 8
Last Quarter
Sep 15
New

Hourly Weather History & Observations

Time (CDT) Temp. Heat Index Dew Point Humidity Pressure Visibility Wind Dir Wind Speed Gust Speed Precip Events Conditions
12:15 AM 82.4 °F 86.3 °F 69.8 °F 66% 29.93 in 10.0 mi SE 10.4 mph - N/A   Clear
12:35 AM 82.4 °F 86.3 °F 69.8 °F 66% 29.93 in 10.0 mi SE 8.1 mph - N/A   Clear
12:55 AM 82.4 °F 86.3 °F 69.8 °F 66% 29.93 in 10.0 mi SE 8.1 mph - N/A   Clear
1:15 AM 80.6 °F 83.9 °F 69.8 °F 70% 29.93 in 10.0 mi SE 6.9 mph - N/A   Clear
1:35 AM 80.6 °F 83.9 °F 69.8 °F 70% 29.93 in 10.0 mi SE 6.9 mph - N/A   Clear
1:55 AM 80.6 °F 83.9 °F 69.8 °F 70% 29.92 in 10.0 mi SE 6.9 mph - N/A   Clear
2:15 AM 80.6 °F 84.6 °F 71.6 °F 74% 29.92 in 10.0 mi SE 4.6 mph - N/A   Clear
2:35 AM 80.6 °F 84.6 °F 71.6 °F 74% 29.92 in 10.0 mi SE 4.6 mph - N/A   Clear
2:55 AM 78.8 °F - 71.6 °F 78% 29.92 in 10.0 mi SE 5.8 mph - N/A   Clear
3:15 AM 78.8 °F - 71.6 °F 78% 29.91 in 10.0 mi SE 6.9 mph - N/A   Clear
3:35 AM 78.8 °F - 71.6 °F 78% 29.91 in 10.0 mi SE 5.8 mph - N/A   Clear
3:55 AM 78.8 °F - 71.6 °F 78% 29.91 in 10.0 mi SE 5.8 mph - N/A   Clear
4:15 AM 78.8 °F - 71.6 °F 78% 29.91 in 10.0 mi SE 4.6 mph - N/A   Clear
4:35 AM 78.8 °F - 71.6 °F 78% 29.91 in 10.0 mi SSE 4.6 mph - N/A   Clear
4:55 AM 78.8 °F - 71.6 °F 78% 29.91 in 10.0 mi SSE 5.8 mph - N/A   Clear
5:15 AM 78.8 °F - 71.6 °F 78% 29.91 in 10.0 mi SSE 6.9 mph - N/A   Clear
5:35 AM 78.8 °F - 71.6 °F 78% 29.91 in 10.0 mi SSE 5.8 mph - N/A   Clear
5:55 AM 78.8 °F - 71.6 °F 78% 29.92 in 10.0 mi SSE 3.5 mph - N/A   Clear
6:15 AM 77.0 °F - 71.6 °F 83% 29.92 in 10.0 mi South 5.8 mph - N/A   Clear
6:35 AM 77.0 °F - 71.6 °F 83% 29.92 in 10.0 mi Calm Calm - N/A   Clear
7:15 AM 77.0 °F - 71.6 °F 83% 29.93 in 10.0 mi Calm Calm - N/A   Clear
7:35 AM 77.0 °F - 71.6 °F 83% 29.93 in 10.0 mi Calm Calm - N/A   Clear
7:55 AM 77.0 °F - 71.6 °F 83% 29.94 in 10.0 mi Calm Calm - N/A   Clear
8:35 AM 80.6 °F 84.6 °F 71.6 °F 74% 29.94 in 10.0 mi Calm Calm - N/A   Clear
8:55 AM 80.6 °F 84.6 °F 71.6 °F 74% 29.94 in 10.0 mi Calm Calm - N/A   Clear
9:15 AM 82.4 °F 87.2 °F 71.6 °F 70% 29.94 in 10.0 mi South 5.8 mph - N/A   Clear
9:35 AM 82.4 °F 86.3 °F 69.8 °F 66% 29.95 in 10.0 mi South 5.8 mph - N/A   Scattered Clouds
9:55 AM 86.0 °F 90.4 °F 69.8 °F 58% 29.96 in 10.0 mi South 5.8 mph - N/A   Scattered Clouds
10:15 AM 87.8 °F 92.6 °F 69.8 °F 55% 29.96 in 10.0 mi SSE 6.9 mph - N/A   Scattered Clouds
10:35 AM 87.8 °F 92.6 °F 69.8 °F 55% 29.96 in 10.0 mi SSE 10.4 mph - N/A   Scattered Clouds
10:55 AM 87.8 °F 91.4 °F 68.0 °F 52% 29.95 in 10.0 mi SE 9.2 mph - N/A   Clear
11:15 AM 89.6 °F 93.4 °F 68.0 °F 49% 29.95 in 10.0 mi SSE 9.2 mph - N/A   Clear
11:35 AM 91.4 °F 94.0 °F 66.2 °F 43% 29.94 in 10.0 mi South 10.4 mph 16.1 mph N/A   Clear
12:15 PM 93.2 °F 94.9 °F 64.4 °F 38% 29.92 in 10.0 mi SE 9.2 mph - N/A   Clear
12:35 PM 93.2 °F 94.9 °F 64.4 °F 38% 29.91 in 10.0 mi SSE 12.7 mph 16.1 mph N/A   Clear
12:55 PM 95.0 °F 97.0 °F 64.4 °F 36% 29.90 in 10.0 mi South 9.2 mph 18.4 mph N/A   Clear
1:15 PM 96.8 °F 99.0 °F 64.4 °F 34% 29.89 in 10.0 mi South 5.8 mph 19.6 mph N/A   Scattered Clouds
1:35 PM 96.8 °F 98.0 °F 62.6 °F 32% 29.88 in 10.0 mi SSW 10.4 mph 16.1 mph N/A   Scattered Clouds
1:55 PM 96.8 °F 98.0 °F 62.6 °F 32% 29.87 in 10.0 mi South 3.5 mph 16.1 mph N/A   Scattered Clouds
2:15 PM 95.0 °F 96.0 °F 62.6 °F 34% 29.86 in 10.0 mi SW 4.6 mph 9.2 mph N/A   Scattered Clouds
2:35 PM 96.8 °F 98.0 °F 62.6 °F 32% 29.85 in 10.0 mi South 10.4 mph - N/A   Scattered Clouds
2:55 PM 98.6 °F 99.4 °F 60.8 °F 29% 29.83 in 10.0 mi SE 5.8 mph - N/A   Scattered Clouds
3:15 PM 98.6 °F 99.4 °F 60.8 °F 29% 29.81 in 10.0 mi SE 6.9 mph - N/A   Scattered Clouds
3:35 PM 100.4 °F 101.3 °F 60.8 °F 27% 29.80 in 10.0 mi SE 11.5 mph - N/A   Scattered Clouds
3:55 PM 102.2 °F 103.6 °F 60.8 °F 26% 29.79 in 10.0 mi SSE 9.2 mph - N/A   Scattered Clouds
4:15 PM 96.8 °F 97.1 °F 60.8 °F 30% 29.79 in 10.0 mi SE 6.9 mph - N/A   Scattered Clouds
4:35 PM 96.8 °F 96.2 °F 59.0 °F 28% 29.78 in 10.0 mi SSE 10.4 mph - N/A   Mostly Cloudy
4:55 PM 100.4 °F 100.2 °F 59.0 °F 25% 29.77 in 10.0 mi South 11.5 mph - N/A   Scattered Clouds
5:15 PM 100.4 °F 100.2 °F 59.0 °F 25% 29.76 in 10.0 mi South 9.2 mph 21.9 mph N/A   Clear
5:35 PM 100.4 °F 100.2 °F 59.0 °F 25% 29.76 in 10.0 mi SSE 11.5 mph 16.1 mph N/A   Clear
5:55 PM 98.6 °F 98.5 °F 59.0 °F 27% 29.75 in 10.0 mi SSE 11.5 mph 16.1 mph N/A   Clear
6:15 PM 96.8 °F 96.2 °F 59.0 °F 28% 29.75 in 10.0 mi SSE 9.2 mph - N/A   Scattered Clouds
6:35 PM 98.6 °F 98.5 °F 59.0 °F 27% 29.75 in 10.0 mi SSE 8.1 mph - N/A   Scattered Clouds
6:55 PM 98.6 °F 98.5 °F 59.0 °F 27% 29.74 in 10.0 mi SE 11.5 mph - N/A   Clear
7:15 PM 96.8 °F 96.2 °F 59.0 °F 28% 29.74 in 10.0 mi SE 8.1 mph - N/A   Clear
7:35 PM 95.0 °F 94.4 °F 59.0 °F 30% 29.74 in 10.0 mi SE 5.8 mph - N/A   Clear
7:55 PM 93.2 °F 94.9 °F 64.4 °F 38% 29.75 in 10.0 mi ESE 13.8 mph 18.4 mph N/A   Scattered Clouds
8:15 PM 91.4 °F 95.4 °F 68.0 °F 46% 29.76 in 10.0 mi ESE 11.5 mph 16.1 mph N/A   Clear
8:35 PM 91.4 °F 95.4 °F 68.0 °F 46% 29.76 in 10.0 mi ESE 10.4 mph - N/A   Clear
8:55 PM 89.6 °F 93.4 °F 68.0 °F 49% 29.77 in 10.0 mi ESE 12.7 mph 19.6 mph N/A   Clear
9:15 PM 89.6 °F 93.4 °F 68.0 °F 49% 29.77 in 10.0 mi SE 8.1 mph 17.3 mph N/A   Clear
9:35 PM 89.6 °F 92.2 °F 66.2 °F 46% 29.79 in 10.0 mi SE 10.4 mph 16.1 mph N/A   Clear
9:55 PM 89.6 °F 92.2 °F 66.2 °F 46% 29.80 in 10.0 mi SE 10.4 mph 18.4 mph N/A   Clear
10:15 PM 87.8 °F 91.4 °F 68.0 °F 52% 29.81 in 10.0 mi ESE 10.4 mph 19.6 mph N/A   Clear
10:35 PM 87.8 °F 91.4 °F 68.0 °F 52% 29.81 in 10.0 mi SE 12.7 mph 19.6 mph N/A   Clear
10:55 PM 87.8 °F 91.4 °F 68.0 °F 52% 29.83 in 10.0 mi ESE 8.1 mph - N/A Thunderstorm Clear
11:15 PM 86.0 °F 89.4 °F 68.0 °F 55% 29.86 in 10.0 mi NE 13.8 mph 17.3 mph N/A   Scattered Clouds
11:35 PM 80.6 °F 83.2 °F 68.0 °F 65% 29.86 in 10.0 mi NNE 16.1 mph 24.2 mph N/A Thunderstorm Mostly Cloudy